Regional Weather Roundup
Issued by NWS

Current Version | Previous Version | Text Only | Print | Product List | Glossary On
Versions: 1 2 3 4 5 6 7 8 9 10 11 12 13 14 15 16 17 18 19 20 21 22 23 24 25 26 27 28
000
ASUS45 KBOU 210110
RWRCO

WEATHER ROUNDUP FOR COLORADO
NATIONAL WEATHER SERVICE DENVER/BOULDER CO
600 PM MST MON NOV 20 2017

NOTE: "FAIR" INDICATES FEW OR NO CLOUDS BELOW 12000 FEET WITH NO
SIGNIFICANT WEATHER AND/OR OBSTRUCTIONS TO VISIBILITY.

COZ001>005-013-030-031-210200-
...NORTHWEST COLORADO...

CITY           SKY/WX    TMP DP  RH WIND       PRES   REMARKS
CRAIG          FAIR      32  26  78 NW6       30.05S WCI  26
HAYDEN         MOCLDY    34  24  67 N8        30.06F WCI  27
MEEKER         FAIR      40  20  44 VRB3      30.03F
RABBIT EARS PA FAIR      27   9  46 W9G20     30.09F WCI  17
STEAMBOAT SPGS FAIR      33  21  62 CALM      30.03F
WALDEN         FAIR      39   7  26 S8G17     30.03F
$$

COZ006>008-011-210200-
...WEST CENTRAL VALLEYS...

CITY           SKY/WX    TMP DP  RH WIND       PRES   REMARKS
GRAND JUNCTION FAIR      38  18  44 CALM      30.13F
MONTROSE       CLOUDY    35  21  56 E3        30.18R
EAGLE          FAIR      35  23  61 E10       30.11F WCI  27
RIFLE          CLOUDY    37  24  59 CALM      30.13F
DELTA          CLOUDY    40  21  47 CALM      30.15F
NUCLA          FAIR      41   3  20 E3        30.19
$$

COZ017>023-064>068-210200-
...SOUTHWEST COLORADO...

CITY           SKY/WX    TMP DP  RH WIND       PRES   REMARKS
DURANGO        FAIR      38  15  39 E6        30.13R
CORTEZ         FAIR      33  14  45 NE6       30.15R WCI  28
PAGOSA SPRINGS FAIR      33  15  46 CALM      30.17R
TELLURIDE      CLOUDY    39   7  26 CALM      30.23R
WOLF CREEK PAS FAIR      27   9  46 SW10      30.29S WCI  17
$$

COZ009-010-012-014-032>034-037-058>063-210200-
...CENTRAL COLORADO...

CITY           SKY/WX    TMP DP  RH WIND       PRES   REMARKS
ASPEN          CLOUDY    33  23  66 SW7       30.13S WCI  27
BUENA VISTA    FAIR      45   2  16 W20       30.05R
COPPER MTN     MOCLDY    32   0  25 MISG      30.20F
BERTHOUD PASS  FAIR      21  10  63 NW32G40   30.13F WCI   2
COTTONWOOD PAS FAIR      45 -13   8 W35G55    30.05R
GUNNISON       MOCLDY    28  20  71 CALM      30.19R
KREMMLING      FAIR      39   9  28 CALM      30.08S
LEADVILLE      FAIR      32   0  25 NE6       30.13F WCI  26
MONARCH PASS   FAIR      27   0  31 W41       30.29R WCI   8
SALIDA         FAIR      52  -3  10 W26G36    30.09R
SUNLIGHT       CLOUDY    28   1  31 SW16G25   30.21F WCI  17
WILKERSON PASS FAIR      32   3  29 NW12G30   30.13F WCI  23
$$

COZ069>075-210200-
...SAN LUIS VALLEY/SANGRE DE CRISTO MOUNTAINS...

CITY           SKY/WX    TMP DP  RH WIND       PRES   REMARKS
ALAMOSA        FAIR      37   1  22 CALM      30.07R
DEL NORTE      FAIR      33   6  31 NW3       30.09R
LA VETA PASS   FAIR      34   0  23 S18G33      N/A  WCI  23
SAGUACHE       FAIR      41  -8  12 NW8       30.09R
$$

COZ035-036-038>040-210200-
...NORTHERN COLORADO FRONT RANGE...

CITY           SKY/WX    TMP DP  RH WIND       PRES   REMARKS
DENVER INTL AP MOCLDY    54  10  17 S7        29.84S
DMNS CITY PARK   N/A     58   7  13 SW7G13    29.84S
AURORA         MOCLDY    53  10  17 E3        29.87R
FRONT RANGE AP MOCLDY    54  10  17 S9        29.86F
ERIE MUNI ARPT FAIR      47  16  28 CALM      29.88S
BOULDER MUN AP FAIR      57  10  15 CALM      29.82S
CENTENNIAL     MOCLDY    56  13  18 VRB5      29.86S
BROOMFIELD     NOT AVBL
FORT COLLINS   FAIR      58  13  17 SW12G22   29.80S
LONGMONT       FAIR      62  10  12 SW9G23    29.83F
$$

COZ041-046-047-076>085-087-088-210200-
...PIKES PEAK/PALMER DIVIDE AND SOUTHERN FOOTHILLS...

CITY           SKY/WX    TMP DP  RH WIND       PRES   REMARKS
COLO. SPRINGS  FAIR      57  12  17 NW13      29.90R
A. F. ACADEMY  FAIR      54  10  17 NE8       29.91R
SCHRIEVER AFB  FAIR      54  11  17 N12       29.89R
CHEYENNE MTN   MOCLDY    52  13  21 W7        29.87R
ELLICOTT         N/A    N/A N/A N/A VRB5      29.88R
FALCON         FAIR      48  11  23 NW7       29.94S
FORT CARSON    FAIR      56  15  19 NW6       29.86R
LIMON          FAIR      43  10  26 VRB5      29.86R
MONUMENT HILL  FAIR      41  18  38 W8        29.95S
CANON CITY     FAIR      59  14  17 CALM      29.88R
WALSENBURG     NOT AVBL
TRINIDAD       FAIR      51  13  21 W9        29.89R
$$

COZ042>045-048>051-090-091-210200-
...NORTHEAST COLORADO...

CITY           SKY/WX    TMP DP  RH WIND       PRES   REMARKS
GREELEY ARPT   FAIR      55  13  18 W7        29.81S
AKRON          FAIR      52  11  19 N13       29.80S
BURLINGTON     FAIR      51   9  18 N8        29.81R
WRAY           NOT AVBL
YUMA           FAIR      52  18  25 N6        29.81R
STERLING       FAIR      55  18  22 N17G29    29.77R
HOLYOKE        FAIR      54  19  26 NW10      29.80R
FORT MORGAN    FAIR      57  10  15 N18G25    29.80S
$$

COZ086-089-092>099-210200-
...SOUTHEAST COLORADO...

CITY           SKY/WX    TMP DP  RH WIND       PRES   REMARKS
PUEBLO         FAIR      59  15  18 NW14      29.81R
LA JUNTA       FAIR      52  11  19 S8        29.80R
LAMAR          FAIR      39   4  23 SW5       29.77R
SPRINGFIELD      N/A     43  10  26 W7        29.81S
$$




USA.gov is the U.S. government's official web portal to all federal, state and local government web resources and services.